Temperature
24 23 22 23 23 23 23 23 22 23 24 23 22 22 22 22 22 21 21 20 20 20 20 19 19 19 18 18 18 18 17 17 17 17 17 17 16 16 16 16 16 16 16 16
23 23 24 24 24 23 23 22 22 23 24 23 22 22 22 22 22 22 21 21 21 20 20 19 19 19 18 18 18 18 17 17 17 17 16 16 16 16 16 16 16 16 16 16
23 24 25 24 24 23 23 22 22 22 23 23 22 21 22 22 22 22 22 21 21 21 20 19 19 19 18 18 18 18 17 17 17 17 17 16 16 16 16 16 16 16 16 16
24 24 24 24 23 23 22 23 23 23 22 22 22 20 22 22 22 22 22 21 21 21 20 20 19 19 18 18 18 18 17 17 17 17 17 16 16 16 16 16 16 16 16 15
23 24 24 23 23 24 23 24 24 23 22 22 23 22 22 23 22 22 22 22 21 21 20 20 19 19 19 18 18 18 17 17 17 17 17 16 16 16 16 16 16 16 16 15
24 24 24 24 24 24 24 24 23 23 22 21 23 22 21 22 22 22 22 22 21 21 21 20 20 19 19 18 18 18 17 17 17 17 17 16 16 16 16 16 16 16 15 15
23 24 24 24 23 24 23 22 21 21 20 21 24 23 22 24 24 24 23 22 22 21 21 20 20 19 19 18 18 17 17 17 17 17 16 16 16 16 16 16 16 16 16 15
22 22 24 24 24 23 23 22 21 20 21 22 24 23 23 25 24 24 23 22 22 21 21 20 20 19 19 18 18 17 17 17 17 17 17 16 16 16 16 16 16 16 16 15
22 22 24 24 24 24 23 23 23 22 22 22 22 23 23 24 24 24 23 22 21 21 21 20 20 19 19 18 18 17 17 17 17 17 17 16 16 16 16 16 16 16 16 16
24 22 23 24 24 24 24 24 23 21 20 21 21 22 21 22 23 23 23 22 21 21 21 20 19 19 18 18 18 17 17 17 17 17 16 16 16 16 16 16 16 16 16 16
24 22 23 23 23 23 23 23 23 22 21 20 20 21 23 23 23 23 23 22 21 21 21 20 19 19 18 18 17 17 17 17 17 17 16 16 16 16 16 16 16 16 16 16
23 23 22 23 24 24 24 24 23 21 21 22 21 21 24 24 24 23 23 22 21 21 20 20 19 19 18 18 17 17 17 17 17 16 16 16 16 16 16 16 16 16 16 16
23 22 21 21 22 23 23 24 24 23 22 21 21 21 23 24 24 23 22 22 21 21 20 19 19 18 18 18 17 17 17 17 16 16 16 16 16 16 16 16 15 16 16 15
23 22 22 21 21 23 23 23 24 23 21 21 22 21 22 23 23 23 22 22 21 20 20 19 19 18 18 17 17 17 17 17 16 16 16 16 16 16 16 15 15 15 15 15
23 22 23 23 23 24 23 23 23 23 23 22 22 22 22 23 23 22 22 21 21 20 20 19 18 18 18 17 17 17 17 17 16 16 16 16 16 16 15 15 15 15 15 15
23 22 23 22 23 24 23 23 23 23 23 23 23 22 23 23 23 23 22 21 20 20 19 19 18 18 18 17 17 17 17 16 16 16 16 16 16 15 15 15 15 15 15 15
23 22 22 22 23 23 22 23 23 24 24 24 23 23 23 23 23 22 22 21 20 20 19 19 18 18 18 17 17 17 17 16 16 16 16 16 16 15 15 15 15 15 15 15
22 22 22 21 22 20 22 24 24 24 24 24 24 24 23 23 22 22 21 21 20 19 19 18 18 18 17 17 17 17 17 16 16 16 16 16 16 15 15 15 15 15 15 15
23 22 21 21 20 21 23 24 24 23 23 24 24 23 23 22 22 21 20 20 19 19 19 18 18 17 17 17 17 17 17 16 16 16 16 16 15 15 15 15 15 15 14 14
23 22 21 20 20 20 22 24 24 23 22 24 24 23 23 22 21 20 20 19 19 19 18 18 18 17 17 17 17 17 16 16 16 16 16 15 15 15 15 15 15 14 14 14
21 21 21 20 20 21 22 23 23 21 21 23 23 23 22 22 21 20 19 19 18 18 18 18 17 17 17 17 17 17 16 16 16 16 15 15 15 15 15 14 14 14 14 14
21 21 21 21 20 20 22 22 22 22 22 23 22 22 21 20 20 19 19 18 18 17 17 17 17 17 17 17 16 16 16 16 16 15 15 15 15 15 14 14 14 14 14 13
21 21 21 21 20 21 22 22 22 22 22 22 21 21 20 20 19 18 18 17 17 17 17 17 16 16 16 16 16 16 16 16 15 15 15 15 15 14 14 14 14 14 13 13
22 22 21 21 21 21 21 21 21 21 21 21 20 20 19 19 18 18 17 17 16 16 16 16 16 16 16 16 16 16 15 15 15 15 15 14 14 14 14 14 13 13 13 13
20 21 21 20 20 21 21 21 20 20 20 20 20 19 19 18 18 17 17 16 16 16 16 15 15 15 15 15 15 15 15 15 15 14 14 14 14 14 13 13 13 13 13 13
21 21 20 20 21 20 20 20 20 20 20 19 19 18 18 18 17 17 16 16 15 15 15 15 15 15 14 14 14 14 15 14 14 14 13 13 13 13 13 13 12 12 12 12
Wind_Speed
6 5 5 5 6 4 4 3 3 4 6 6 6 7 8 8 8 9 9 9 10 10 10 8 7 7 7 7 8 8 7 6 5 3 3 2 2 2 3 3 6 6 7 6
4 5 4 4 4 5 4 3 4 4 6 5 6 6 7 8 8 8 9 10 9 10 10 9 8 7 7 7 7 7 7 6 6 3 3 3 2 3 3 3 4 4 5 5
6 3 4 4 4 5 5 4 5 5 5 5 5 6 8 9 9 8 8 8 10 10 12 11 10 8 7 7 7 8 7 7 7 5 3 3 3 2 3 3 3 4 6 6
4 4 4 4 4 4 4 5 6 7 6 5 8 5 9 11 11 10 9 8 9 9 10 10 10 10 8 7 6 7 7 7 6 6 4 4 4 3 3 3 2 2 5 6
3 4 4 4 4 4 3 4 5 7 7 6 9 6 5 11 12 12 11 10 9 9 10 10 10 10 9 8 6 6 6 6 6 6 5 4 3 3 3 3 4 3 3 4
5 4 3 4 4 4 3 4 6 7 5 6 9 7 4 7 12 13 12 11 10 9 9 9 9 9 9 7 6 6 6 5 5 6 5 5 5 4 4 4 3 3 3 2
7 6 5 4 4 5 5 3 2 4 5 5 7 5 3 5 9 10 11 10 10 10 10 10 10 10 9 9 7 7 7 6 5 6 6 6 5 5 5 4 3 3 3 2
6 6 6 5 5 4 6 7 4 3 3 2 4 3 4 6 7 9 9 9 9 9 9 10 9 9 10 10 8 8 8 7 6 5 5 6 6 3 3 3 3 3 3 2
4 4 6 6 5 5 5 6 6 5 5 2 2 4 6 7 7 7 9 9 8 8 8 9 10 10 10 10 9 8 9 8 7 6 5 5 5 4 3 4 4 3 3 3
3 3 5 6 6 8 7 5 3 2 2 2 2 3 4 9 8 8 8 9 8 7 8 9 9 10 10 9 9 8 8 8 7 6 5 5 5 5 3 3 4 4 3 3
4 3 5 6 6 6 7 5 3 3 3 2 1 1 2 9 9 8 8 7 7 8 8 9 8 8 9 9 9 8 8 8 7 7 6 6 5 5 5 3 4 4 3 4
4 3 4 7 7 6 6 6 4 3 3 3 1 1 2 7 8 8 7 7 6 7 8 8 8 8 8 9 10 9 8 7 7 7 6 6 6 5 5 4 4 4 3 3
3 4 3 4 5 6 6 6 6 5 4 3 1 2 1 5 7 7 7 6 6 7 8 8 8 8 8 8 8 9 9 8 7 7 7 6 6 6 5 5 4 3 3 3
2 6 5 4 3 5 7 7 6 5 3 3 2 4 3 3 5 6 6 6 6 7 7 8 8 7 7 8 8 8 8 8 8 7 6 6 6 6 5 5 4 3 4 4
5 7 6 5 6 5 6 7 7 7 6 4 3 2 3 4 6 6 6 6 6 6 6 8 8 7 7 8 8 8 8 8 9 8 7 6 6 6 6 5 4 3 3 4
7 7 7 7 7 6 6 7 8 8 7 6 4 3 1 3 4 5 6 6 6 6 6 7 7 8 9 9 9 8 8 8 9 9 7 6 6 6 6 6 4 4 3 3
7 7 6 6 6 6 7 6 7 7 7 6 5 3 4 3 3 4 4 5 6 6 6 6 7 7 7 8 9 9 9 8 9 8 8 7 7 7 6 6 5 5 4 4
7 6 4 5 6 7 3 2 3 5 4 3 4 2 4 4 4 3 3 4 5 6 6 6 6 6 6 6 7 8 8 9 8 8 8 8 8 7 7 7 6 5 4 4
8 6 4 4 6 5 5 4 4 4 4 4 3 3 4 5 5 4 4 4 4 4 5 5 5 5 6 6 7 8 8 8 7 7 8 9 8 8 7 7 6 5 5 4
9 7 6 5 5 5 2 3 1 2 3 2 3 3 4 5 3 3 5 4 4 4 4 5 5 5 6 6 7 8 7 7 7 7 7 8 8 8 7 7 6 5 5 4
10 8 9 8 6 3 1 1 1 3 1 2 2 3 2 2 3 4 6 5 4 4 4 5 5 4 5 6 7 7 7 7 7 6 6 7 7 8 7 6 5 6 5 4
7 5 7 7 6 3 2 2 1 2 3 3 4 4 5 5 5 6 6 6 5 4 4 5 5 4 4 5 7 6 6 6 7 7 6 6 6 7 7 7 6 5 5 5
5 3 1 1 1 1 1 1 2 2 3 4 5 5 6 5 5 6 6 6 5 4 4 4 5 5 4 4 6 7 6 7 8 8 7 6 7 6 6 6 6 5 4 4
3 3 3 3 3 3 1 1 2 2 4 5 4 4 5 5 6 6 6 5 4 4 4 4 5 5 4 3 4 5 7 8 8 8 7 6 6 6 6 5 5 4 4 3
2 3 3 4 3 3 3 2 2 2 4 4 3 4 4 5 5 5 5 5 4 4 4 4 4 5 4 4 4 5 6 7 8 7 7 6 5 6 6 5 4 5 4 5
5 4 5 4 3 3 3 3 3 3 3 4 4 4 4 4 5 4 5 5 5 5 4 4 4 4 5 4 4 4 5 7 7 6 6 5 5 5 6 6 5 5 5 6
Wind_Direction
200 218 221 207 216 231 236 210 194 175 172 183 184 183 175 177 178 178 176 179 174 171 167 161 160 153 153 151 143 139 140 132 124 112 103 96 85 75 62 61 58 42 44 43
195 221 231 239 216 230 242 220 203 177 180 189 185 200 194 188 188 184 181 178 172 168 164 161 160 157 159 152 144 146 145 142 133 128 130 127 118 101 88 58 54 43 51 51
211 192 210 234 226 220 222 224 210 192 190 206 202 215 210 194 188 190 183 177 177 175 167 165 167 161 159 157 158 156 155 147 141 141 124 111 88 82 93 85 57 33 50 49
226 230 222 218 226 232 226 218 215 205 205 211 210 223 212 195 186 187 183 179 176 171 165 165 168 163 167 161 156 155 158 147 141 137 133 138 132 123 115 114 109 77 60 55
212 208 226 224 228 237 248 241 236 228 231 241 222 230 207 184 184 188 186 180 177 166 163 166 166 162 163 158 156 153 151 147 143 139 139 140 120 121 112 109 104 97 78 67
220 212 217 229 233 239 249 247 245 237 239 244 229 217 200 189 184 183 181 178 175 171 166 166 162 156 153 149 151 144 140 138 137 140 149 145 134 126 115 104 102 101 92 68
215 206 195 216 224 206 220 228 237 220 215 231 217 200 174 155 165 168 170 173 173 173 171 168 160 156 151 150 152 147 145 145 147 156 160 149 143 140 133 129 118 107 102 80
215 207 194 203 226 219 218 215 233 248 231 225 198 171 130 131 138 151 155 158 162 170 172 165 158 155 153 155 158 154 153 156 163 171 165 151 142 138 137 135 127 117 116 120
222 206 176 197 223 235 227 235 258 288 292 253 178 124 124 123 134 149 151 152 163 170 164 159 158 160 157 158 161 163 160 160 165 170 165 153 146 142 139 135 127 123 118 119
240 219 191 190 218 225 245 251 257 259 276 242 168 176 172 155 155 157 153 158 166 165 162 161 161 160 159 159 163 163 161 163 160 163 164 152 144 140 130 132 133 123 118 102
257 230 205 196 213 218 222 230 245 260 265 279 192 92 150 152 151 159 158 155 162 164 162 158 154 155 154 156 160 159 163 160 161 162 156 149 148 141 132 129 126 122 120 122
238 243 223 217 212 228 238 236 231 248 266 261 302 44 133 135 143 149 152 153 157 152 151 147 149 151 153 160 165 166 166 161 159 156 147 150 154 147 143 143 138 137 136 129
256 252 234 213 203 214 233 234 242 254 263 261 206 154 126 129 135 135 139 144 150 148 150 145 149 153 159 164 167 167 163 159 157 150 151 158 158 154 152 142 135 143 139 136
259 255 241 227 237 227 226 228 233 244 254 259 209 153 179 144 126 126 131 140 146 152 153 148 150 156 160 163 166 164 160 156 156 156 160 163 158 154 147 136 131 139 133 134
240 260 257 250 254 250 233 235 228 233 244 246 232 187 182 153 138 133 141 147 142 147 149 149 156 159 159 162 166 165 161 160 161 161 166 164 153 145 138 135 137 133 134 137
227 258 262 250 248 252 247 241 233 230 233 240 227 229 201 138 135 138 142 143 147 153 158 157 162 162 168 168 169 162 158 163 162 163 165 155 146 140 142 146 141 129 123 115
222 240 257 252 245 247 249 236 229 225 224 233 239 220 146 135 130 124 136 148 155 157 161 162 168 169 173 173 171 164 163 158 161 161 158 153 147 147 154 151 139 136 131 118
239 247 258 259 254 247 230 214 219 223 231 227 218 176 124 125 107 100 111 132 146 156 161 163 168 164 169 167 161 156 155 158 163 160 158 155 153 155 157 149 153 156 145 140
226 233 252 258 251 258 226 187 188 209 230 212 193 154 130 126 123 117 104 106 130 143 155 160 163 159 168 166 160 154 156 157 158 159 161 158 156 155 155 156 160 154 144 141
220 224 235 248 253 249 228 114 112 231 229 164 158 152 152 174 170 138 119 109 117 133 140 144 149 154 163 161 156 152 156 157 161 162 162 159 153 152 158 164 159 146 139 139
206 216 227 241 247 241 109 117 223 228 154 92 118 131 144 139 113 113 117 110 109 113 122 129 135 145 153 154 149 154 158 162 159 154 154 153 149 152 156 157 149 143 144 147
218 219 222 230 235 218 124 175 200 78 82 84 80 86 92 88 96 104 106 107 107 110 117 126 125 121 134 147 150 158 159 154 144 143 146 144 144 149 150 144 143 147 151 156
219 222 244 237 184 102 79 87 45 40 79 73 75 84 96 102 104 107 108 108 111 115 118 124 125 124 128 144 153 157 151 141 139 140 144 147 146 141 140 143 148 152 153 157
218 198 220 231 186 172 186 132 105 65 72 74 77 88 99 112 115 113 116 115 113 112 109 116 120 126 132 136 130 142 144 144 141 141 144 143 143 139 140 139 143 150 155 159
254 221 227 239 212 170 182 153 124 104 101 99 91 93 100 114 114 116 122 118 115 109 108 115 124 127 128 123 127 127 134 143 144 145 144 143 142 144 139 137 138 150 153 160
248 242 229 233 225 206 179 170 150 133 123 122 115 104 100 109 114 115 115 112 114 120 120 119 114 118 128 127 119 119 132 138 141 145 144 141 139 143 143 138 117 81 112 125
Height
1495 1498 1499 1497 1496 1497 1498 1502 1505 1504 1501 1504 1509 1512 1512 1514 1516 1519 1521 1524 1527 1529 1532 1535 1538 1540 1542 1544 1546 1548 1550 1551 1553 1554 1556 1557 1558 1559 1559 1560 1560 1561 1561 1561
1496 1498 1494 1492 1493 1496 1498 1503 1505 1503 1500 1503 1508 1510 1510 1511 1514 1517 1519 1522 1525 1528 1531 1534 1536 1539 1542 1544 1546 1547 1549 1551 1553 1554 1556 1557 1558 1559 1559 1560 1561 1561 1562 1562
1495 1493 1491 1492 1494 1497 1499 1502 1504 1505 1502 1502 1508 1513 1510 1509 1512 1514 1516 1519 1522 1525 1528 1532 1535 1538 1541 1543 1545 1547 1549 1551 1552 1554 1556 1557 1559 1560 1560 1561 1561 1562 1562 1562
1491 1490 1491 1493 1495 1496 1502 1497 1498 1500 1506 1510 1508 1521 1510 1505 1508 1511 1514 1517 1520 1523 1526 1530 1533 1536 1539 1542 1544 1546 1549 1550 1552 1553 1555 1557 1558 1559 1560 1561 1562 1562 1563 1563
1492 1491 1492 1495 1494 1494 1496 1493 1496 1498 1503 1507 1505 1512 1508 1500 1506 1508 1511 1514 1518 1521 1524 1528 1531 1534 1538 1540 1543 1545 1548 1550 1551 1553 1555 1557 1558 1559 1560 1561 1562 1563 1563 1564
1489 1489 1490 1492 1492 1493 1493 1495 1496 1496 1503 1515 1502 1507 1510 1499 1500 1503 1506 1511 1515 1519 1523 1526 1530 1533 1536 1539 1542 1544 1546 1549 1551 1552 1554 1556 1557 1559 1560 1561 1562 1563 1564 1565
1492 1489 1489 1491 1493 1493 1495 1505 1515 1517 1518 1512 1491 1498 1502 1492 1492 1497 1503 1508 1512 1516 1520 1524 1527 1531 1534 1537 1540 1543 1545 1547 1550 1552 1554 1555 1557 1558 1560 1561 1562 1564 1564 1565
1497 1498 1489 1489 1491 1495 1495 1501 1515 1522 1517 1507 1492 1499 1495 1487 1491 1496 1501 1506 1510 1515 1518 1522 1525 1529 1532 1535 1538 1541 1544 1546 1548 1551 1553 1555 1556 1558 1560 1561 1562 1564 1565 1565
1493 1495 1485 1487 1487 1490 1495 1496 1492 1502 1502 1508 1501 1497 1493 1489 1492 1496 1501 1505 1509 1512 1516 1520 1523 1527 1530 1533 1537 1540 1542 1545 1547 1550 1552 1554 1556 1557 1559 1561 1562 1563 1564 1565
1484 1493 1487 1486 1488 1488 1489 1489 1495 1505 1515 1516 1507 1504 1502 1495 1494 1496 1500 1504 1508 1511 1515 1518 1522 1525 1529 1532 1535 1539 1541 1544 1546 1549 1551 1553 1555 1557 1558 1560 1562 1563 1564 1565
1482 1491 1491 1488 1490 1491 1490 1492 1493 1498 1502 1513 1517 1512 1488 1490 1492 1495 1499 1502 1506 1509 1513 1516 1520 1523 1527 1530 1534 1537 1540 1543 1545 1547 1550 1552 1554 1556 1557 1559 1561 1563 1564 1565
1483 1487 1493 1489 1483 1482 1484 1487 1491 1504 1504 1501 1509 1511 1485 1487 1490 1494 1498 1502 1505 1508 1512 1515 1518 1522 1525 1529 1532 1535 1538 1541 1544 1546 1548 1551 1553 1555 1557 1558 1560 1562 1564 1565
1483 1488 1498 1498 1493 1486 1485 1484 1485 1489 1495 1501 1509 1510 1488 1488 1490 1494 1497 1501 1504 1508 1511 1514 1517 1520 1524 1527 1530 1534 1537 1539 1542 1545 1547 1550 1552 1554 1556 1558 1559 1561 1563 1565
1483 1486 1492 1502 1495 1487 1487 1485 1484 1489 1499 1501 1500 1500 1494 1490 1491 1494 1497 1500 1504 1507 1510 1513 1516 1519 1522 1525 1529 1532 1535 1538 1541 1543 1546 1549 1551 1553 1555 1557 1558 1561 1562 1564
1482 1486 1483 1483 1481 1480 1483 1483 1484 1487 1489 1495 1494 1493 1492 1490 1492 1494 1497 1500 1503 1506 1509 1511 1514 1517 1520 1524 1527 1530 1533 1536 1539 1542 1545 1547 1550 1552 1554 1556 1558 1560 1562 1563
1481 1484 1483 1484 1480 1479 1482 1481 1481 1483 1484 1486 1488 1491 1487 1487 1491 1493 1496 1499 1502 1505 1508 1510 1513 1516 1518 1522 1525 1528 1531 1534 1537 1540 1543 1545 1548 1550 1552 1554 1556 1558 1560 1562
1479 1483 1487 1488 1480 1481 1487 1479 1479 1480 1479 1482 1487 1487 1485 1489 1490 1493 1496 1498 1501 1503 1506 1509 1511 1514 1516 1520 1523 1526 1529 1532 1536 1538 1541 1544 1546 1549 1551 1553 1555 1557 1559 1561
1478 1481 1484 1487 1488 1499 1483 1471 1473 1476 1477 1477 1479 1481 1484 1488 1491 1493 1495 1497 1499 1502 1505 1507 1510 1512 1515 1518 1522 1525 1528 1531 1534 1537 1539 1542 1545 1547 1549 1552 1554 1556 1558 1559
1474 1480 1486 1489 1493 1488 1476 1471 1473 1477 1479 1476 1478 1481 1484 1487 1490 1493 1495 1497 1499 1501 1503 1506 1508 1511 1514 1517 1520 1523 1526 1529 1532 1534 1537 1540 1542 1545 1547 1550 1552 1554 1556 1558
1473 1476 1484 1488 1494 1497 1480 1471 1472 1476 1482 1476 1477 1480 1483 1485 1491 1494 1495 1496 1498 1500 1502 1504 1507 1509 1512 1515 1518 1521 1524 1527 1529 1532 1535 1538 1541 1543 1545 1548 1550 1552 1555 1556
1476 1478 1482 1486 1489 1484 1474 1472 1474 1486 1484 1477 1478 1480 1482 1484 1488 1492 1493 1495 1497 1499 1500 1502 1505 1507 1510 1513 1516 1519 1522 1524 1527 1530 1533 1536 1539 1541 1543 1546 1548 1550 1552 1554
1473 1477 1478 1480 1487 1488 1474 1473 1477 1479 1476 1477 1479 1481 1483 1485 1488 1490 1492 1494 1495 1497 1499 1501 1503 1506 1509 1512 1514 1517 1520 1523 1526 1529 1531 1534 1537 1539 1541 1544 1546 1548 1550 1552
1468 1471 1473 1476 1480 1475 1473 1474 1475 1476 1477 1479 1480 1482 1484 1486 1488 1490 1492 1493 1495 1497 1499 1500 1502 1504 1507 1510 1513 1515 1518 1521 1524 1527 1529 1532 1535 1537 1539 1541 1544 1546 1548 1550
1464 1466 1470 1472 1472 1473 1474 1475 1476 1477 1478 1480 1482 1483 1485 1486 1488 1490 1492 1493 1495 1496 1498 1500 1501 1503 1506 1509 1512 1514 1517 1520 1522 1525 1528 1530 1532 1535 1537 1539 1541 1543 1545 1547
1466 1466 1469 1472 1472 1472 1474 1475 1476 1478 1479 1481 1483 1484 1485 1486 1488 1490 1491 1493 1494 1496 1498 1499 1500 1502 1505 1507 1510 1513 1515 1518 1520 1523 1526 1528 1530 1533 1535 1537 1539 1541 1543 1545
1465 1466 1469 1471 1470 1471 1473 1474 1476 1478 1479 1481 1482 1484 1485 1486 1488 1489 1491 1492 1494 1495 1497 1498 1500 1502 1504 1506 1509 1511 1514 1516 1519 1521 1524 1526 1529 1531 1533 1535 1537 1539 1541 1543